Tracking 19827 objects as of 22-Aug-2019
HD Live streaming from Space Station
objects crossing your sky now

METEOR 2-5 DEB

Track METEOR 2-5 DEB now!
10-day predictions


NORAD ID: 29198
Int'l Code: 1979-095P
Perigee: 767.2 km
Apogee: 786.9 km
Inclination: 81.2 °
Period: 100.2 minutes
Semi major axis: 7148 km
RCS: 0.0095 m2 (small)
Launch date: October 31, 1979
Source: Commonwealth of Independent States (former USSR) (CIS)
Launch site: PLESETSK MISSILE AND SPACE COMPLEX (PKMTR)

Note: This is SATELLITE DEBRIS
aabbcc
Your satellite tracking list
Your tracking list is empty




NASA's NSSDC Master Catalog

Two Line Element Set (TLE):
1 29198U 79095P   19233.55315419  .00000654  00000-0  21806-3 0  9995
2 29198  81.2020 309.1094 0013729 174.8182 185.3148 14.36552590853302
Source of the keplerian elements: AFSPC